Regional Weather Roundup
Issued by NWS

Home | Current Version | Previous Version | Text Only | Print | Product List | Glossary On
Versions: 1 2 3 4 5 6 7 8 9 10 11 12 13 14 15 16 17 18 19 20 21 22 23 24 25 26 27 28 29 30 31 32 33 34 35 36 37 38 39 40 41 42 43 44 45 46 47 48 49 50
164
ASUS43 KDTX 261410
RWRMI
MICHIGAN HOURLY REGIONAL WEATHER ROUNDUP
NATIONAL WEATHER SERVICE DETROIT/PONTIAC MI
ISSUED BY NATIONAL WEATHER SERVICE GRAND RAPIDS MI
1000 AM EDT MON JUN 26 2017

NOTE: "FAIR" INDICATES FEW OR NO CLOUDS BELOW 12,000 FEET WITH NO
SIGNIFICANT WEATHER AND/OR OBSTRUCTION TO VISIBILITY.

MIZ047>049-052>055-059>063-066>070-074>076-081>083-261500-
SOUTHEAST LOWER MICHIGAN

CITY           SKY/WX    TMP DP  RH WIND       PRES   REMARKS
ADRIAN         MOSUNNY   63  50  62 NW13G20   30.08S
ALMA           MOSUNNY   61  47  61 W16G25    30.03S
ANN ARBOR      MOSUNNY   64  50  60 W18G24    30.05S
BAD AXE        CLOUDY    58  53  81 SW14G22   29.98S
DETROIT CITY   PTSUNNY   64  51  62 W9        30.04R
DETROIT        MOSUNNY   66  52  60 NW13      30.05S
FLINT          MOSUNNY   63  48  58 W17       30.03S
GROSSE ILE     MOSUNNY   65  52  64 W9G18     30.04S
HILLSDALE      SUNNY     63  46  55 W12G21    30.07F
HOWELL         PTSUNNY   62  47  57 W13       30.04F

CITY           SKY/WX    TMP DP  RH WIND       PRES   REMARKS
JACKSON        MOSUNNY   63  48  58 W12       30.06S
LANSING        MOSUNNY   64  47  53 W16G23    30.05F
MASON          PTSUNNY   62  50  63 NW12G17   30.05F
MONROE         PTSUNNY   63  53  68 W12G20    30.05F
MT. CLEMENS    PTSUNNY   65  53  64 W15       30.01S
PONTIAC        PTSUNNY   62  50  64 W16       30.02F
PORT HOPE        N/A     60  55  83 SW5       29.95S
PORT HURON     CLOUDY    61  52  72 W7        30.01S
TRI CITIES     MOSUNNY   62  51  67 W15G24    30.01S
YPSILANTI      PTSUNNY   65  50  58 W17       30.05F
$$
MIZ043>046-050>051-056>058-064>065-071>073-077>080-261500-
SOUTHWEST LOWER MICHIGAN

CITY           SKY/WX    TMP DP  RH WIND       PRES   REMARKS
BATTLE CREEK   MOSUNNY   64  49  57 W10       30.07F
BENTON HARBOR  SUNNY     66  47  50 W15       30.09F
BIG RAPIDS     PTSUNNY   59  46  62 W13G23    30.00F
COLDWATER      PTSUNNY   63  47  55 W12G22    30.08F
HOLLAND        MOSUNNY   64  50  60 W13G20    30.07F
GRAND RAPIDS   MOSUNNY   62  51  67 W16G26    30.05S
KALAMAZOO      MOSUNNY   66  43  43 NW15G29   30.08S
MARSHALL       PTSUNNY   64  48  55 W13G21    30.06S
MOUNT PLEASANT PTSUNNY   59  46  61 W10G17    30.01S
MUSKEGON       PTSUNNY   62  51  67 W12G22    30.05F
STURGIS        MOSUNNY   63  49  60 NW6       30.08F
$$
MIZ016>042-261500-
NORTHERN LOWER MICHIGAN

CITY           SKY/WX    TMP DP  RH WIND       PRES   REMARKS
ALPENA         CLOUDY    58  57  97 S6        29.93F
BEAVER ISLAND  CLOUDY    55  53  95 NW6       29.94S
BELLAIRE       RAIN      55  53  92 SW7       29.95S
CADILLAC       PTSUNNY   56  45  66 W13G20    29.98S
CHARLEVOIX     CLOUDY    57  56  98 W8        29.96S
GAYLORD        LGT RAIN  54  50  86 SW9       29.94S
HOUGHTON LAKE  CLOUDY    56  46  69 W14G23    29.98S
MANISTEE       CLOUDY    56  48  74 W15       30.01S
OSCODA         CLOUDY    61  55  78 W14       29.94S
PELLSTON       RAIN      55  53  93 CALM      29.93S FOG
TRAVERSE CITY  PTSUNNY   59  49  69 W14       29.96R
LUDINGTON      PTSUNNY   58  50  73 W10G17    30.02S
$$
MIZ007>008-015-261500-
EASTERN UPPER MICHIGAN

CITY           SKY/WX    TMP DP  RH WIND       PRES   REMARKS
KINROSS        RAIN      53  52  96 N3        29.94R
MACKINAC ISLAN LGT RAIN  55  55 100 NE7       29.92S
NEWBERRY       LGT RAIN  49  48  97 N5        29.94S
S. S. MARIE    HVY RAIN  55  53  93 CALM      29.93S FOG
$$
MIZ004>006-011>014-085-261500-
CENTRAL UPPER MICHIGAN

CITY           SKY/WX    TMP DP  RH WIND       PRES   REMARKS
MANISTIQUE     CLOUDY    52  49  89 N5        29.95S
ESCANABA       CLOUDY    54  51  90 NW7       29.97S FOG
MENOMINEE      CLOUDY    53  45  74 NW10      30.00S
SAWYER-GWINN   CLOUDY    48  48 100 N6        29.97S
$$
MIZ001>003-009>011-084-261500-
WESTERN UPPER MICHIGAN

CITY           SKY/WX    TMP DP  RH WIND       PRES   REMARKS
IRON MOUNTAIN  CLOUDY    52  45  77 NW9       29.98S
HOUGHTON       CLOUDY    51  48  89 N9        30.02R
COPPER HARBOR    N/A     49  47  93 N5        30.02R
IRONWOOD       RAIN      46  46 100 NW8       30.10R
$$

ABBREVIATIONS USED IN REMARKS
   TC - TEMPERATURE IN CELSIUS
  WCI - WIND CHILL INDEX
   HX - HEAT INDEX
  VSB - VISIBILITY





USA.gov is the U.S. government's official web portal to all federal, state and local government web resources and services.